TimeEST,TemperatureF,Dew PointF,Humidity,Sea Level PressureIn,VisibilityMPH,Wind Direction,Wind SpeedMPH,Gust SpeedMPH,PrecipitationIn,Events,Conditions,WindDirDegrees,DateUTC
12:53 AM,30.9,25.0,79,29.95,7.0,Calm,Calm,-,N/A,,Overcast,0,2013-02-24 05:53:00
1:53 AM,28.9,24.1,82,29.96,7.0,Calm,Calm,-,N/A,,Partly Cloudy,0,2013-02-24 06:53:00
2:53 AM,28.9,24.1,82,29.97,7.0,Calm,Calm,-,N/A,,Partly Cloudy,0,2013-02-24 07:53:00
3:53 AM,28.0,23.0,81,29.97,7.0,Calm,Calm,-,N/A,,Partly Cloudy,0,2013-02-24 08:53:00
4:53 AM,27.0,23.0,85,29.98,7.0,Calm,Calm,-,N/A,,Clear,0,2013-02-24 09:53:00
5:53 AM,26.1,23.0,88,30.00,7.0,West,3.5,-,N/A,,Clear,280,2013-02-24 10:53:00
6:53 AM,28.0,23.0,81,30.03,7.0,WNW,8.1,-,N/A,,Partly Cloudy,290,2013-02-24 11:53:00
7:53 AM,28.0,21.9,78,30.06,6.0,Calm,Calm,-,N/A,,Haze,0,2013-02-24 12:53:00
8:17 AM,28.4,21.2,74,30.05,6.0,Calm,Calm,-,N/A,,Haze,0,2013-02-24 13:17:00
8:53 AM,30.9,23.0,72,30.08,7.0,NW,8.1,-,N/A,,Overcast,320,2013-02-24 13:53:00
9:53 AM,30.0,21.9,72,30.11,7.0,West,8.1,-,N/A,,Overcast,270,2013-02-24 14:53:00
10:53 AM,30.9,21.0,67,30.11,8.0,West,8.1,-,N/A,,Overcast,260,2013-02-24 15:53:00
11:53 AM,32.0,21.0,64,30.11,8.0,West,8.1,-,N/A,,Overcast,280,2013-02-24 16:53:00
12:53 PM,34.0,21.0,59,30.11,8.0,West,10.4,19.6,N/A,,Overcast,260,2013-02-24 17:53:00
1:31 PM,35.6,21.2,56,30.08,9.0,WSW,8.1,16.1,N/A,,Overcast,250,2013-02-24 18:31:00
1:53 PM,35.1,21.0,57,30.11,10.0,Variable,6.9,18.4,N/A,,Overcast,0,2013-02-24 18:53:00
2:53 PM,35.1,21.0,57,30.13,10.0,WNW,11.5,19.6,N/A,,Overcast,300,2013-02-24 19:53:00
3:53 PM,35.1,19.9,54,30.14,10.0,NNW,13.8,-,N/A,,Scattered Clouds,330,2013-02-24 20:53:00
4:53 PM,35.1,19.0,52,30.16,10.0,NW,12.7,-,N/A,,Mostly Cloudy,310,2013-02-24 21:53:00
5:53 PM,32.0,18.0,56,30.17,10.0,NW,10.4,16.1,N/A,,Partly Cloudy,310,2013-02-24 22:53:00
6:53 PM,30.0,17.1,59,30.20,10.0,NW,4.6,-,N/A,,Clear,320,2013-02-24 23:53:00
7:53 PM,28.9,17.1,61,30.21,10.0,Calm,Calm,-,N/A,,Clear,0,2013-02-25 00:53:00
8:53 PM,27.0,18.0,69,30.22,9.0,Calm,Calm,-,N/A,,Clear,0,2013-02-25 01:53:00
9:53 PM,25.0,18.0,75,30.22,10.0,Calm,Calm,-,N/A,,Clear,0,2013-02-25 02:53:00
10:53 PM,24.1,17.1,75,30.22,10.0,Calm,Calm,-,N/A,,Clear,0,2013-02-25 03:53:00
11:53 PM,24.1,17.1,75,30.21,8.0,Calm,Calm,-,N/A,,Clear,0,2013-02-25 04:53:00